Location: Biharia
(46.4333°N, 22.8000°E)
Time: 21:32:47
(UTC+00:00)

Ariane Rocket - Pass Details

Date: 16 October 2021
Orbit: 759 x 770 km, 98.7° (Epoch: 29 November)

Event Time Altitude Azimuth Distance (km) Brightness Sun altitude
Exits shadow 18:00:53 24° 25° (NNE) 1,566 4.5 -24.9°
Drops below altitude 10° 18:03:22 10° 3° (N) 2,325 5.6 -25.3°
Sets 18:05:52 0° 354° (N) 3,256 6.5 -25.7°
